Showing default

BEIDOU 3M16, 43648

Orbit data source: Space-Track

BEIDOU 3M16, 43648 is a payload satellite owned by CNSA (CN) in MEO that was launched on Mon, 15 Oct 2018 UTC via a CHANG ZHENG 3B/YZ-1 launch vehicle from the Xichang Space Center, China (XSC). Payloads include a variety of satellites, spacecraft, and rockets equipped with specific instruments for various scientific and technological missions. These include communications satellites like Starlink; space stations such as the ISS; scientific satellites like the Hubble; Earth observation satellites from companies like Planet Labs, Umbra, and HawkEye 360; GPS; miniature CubeSats for education and research; and military/defense satellites.

Loading next visibility...
BEIDOU 3M16 details
Identifier
43648, 2018-078B
Orbit
MEO
Last TLE update21 hours ago
Origin
Flag of CNCNSA (CN / PRC)
ManufacturerSECM
MissionOperational Defense Navigation
Bus & MotorBD-3M/SAR, Unknown motor
Mass1,014 kg wet, ~850 kg dry
Launch date (UTC)
2018-10-15 (6 years ago)
Launch vehicle
CHANG ZHENG 3B/YZ-1
Launch site
Xichang Space Center, China (XSC)
Object type
Payload
Rocket body
Debris
Shape & HBRBox + 2 Pan, 10 m
Radar Cross Section8.984 m², Large (>1 m²)

Expand to show TLE details & history

TLE from 21 hours ago
0 BEIDOU 3M16
1 43648U 18078B   24336.42679671 -.00000062  00000-0  00000-0 0  9998
2 43648  54.5819 319.6367 0003632   4.0268 355.9736  1.86232212 41693
Epoch: 2024-12-01T10:14Z
Definitive object data (Epoch: 2024-12-01T10:14:35.235Z)
Latitude-0.00002°
Longitude95.20952°
Altitude21,518.11 km
Speed3.781 km/s
True Right ascension21h 18m 29s
True Declination0° 00' 00"
Sunlit
Object was in daylight at TLE epoch
Visualization TLE readout
Latitude-44.04171°
Longitude-41.42622°
Altitude21,549.201 km
Speed3.778 km/s
Apparent Right ascension13h 03m 19s
Apparent Declination-47° 22' 20"
Sunlit
Object is in daylight
Visualization observer readout
Local Sidereal Time05:26:06
Azimuth121.986° SE
Elevation-43.307°
Doppler factor1
Orbital elements
Apogee altitude21,538.089 km
Perigee altitude21,517.818 km
Semi-major axis27,906.091 km
Eccentricity0.0003632
Inclination54.5819°
RAAN319.6367°
Arg. of periapsis4.0268°
True anomaly355.97068°
Mean anomaly355.9736°
Eccentric anomaly355.97214°
Mean motion0.46558 °/min
BSTARUnknown
Orbital period773.23 mins
Loading maneuver chart data...
Loading historical data...
Loading historical data...
Loading historical data...
Loading historical data...
Loading historical data...
Loading historical data...
Loading historical data...
Other satellites on launch #78 in the year 2018 (2018-10-15 UTC)

BEIDOU 3M16 Visibility forecast

Observer location: undefined°, undefined

Span
Click to sort rows by Start time (UTC) header in descending order
Start Az.
Max El. time (UTC)
Max El. Az.
Max El.
End time (UTC)
End Az.
441 mins2024-12-02 23:51:59.861Z203.42° SW2024-12-03 03:03:59.861Z314.118° NW44.536°2024-12-03 07:12:59.861Z106.711° ESE
|